Hourly Data Report for September 09, 2020

SHEARWATER RCS
NOVA SCOTIA
Current Station Operator: ECCC - MSC

44°37'47.000" N
63°30'48.000" W
24.00 m
8205092
71264
AAW

Download Data

Hourly Data (September 2020)
Hourly Data Report for September 9, 2020
TIME Temp Definition
°C
Dew Point Definition
°C
Rel Hum Definition
%
Wind Dir Definition
10's deg

Wind Spd Definition
km/h
Visibility Definition
km
Stn Press Definition
kPa
Hmdx Definition


Wind Chill Definition


Weather Definition


00:00 16.4 15.8 96   0   102.17     LegendNANA
01:00 16.3 15.7 97 5 6   102.19     LegendNANA
02:00 16.1 15.5 97 4 5   102.23     LegendNANA
03:00 15.4 14.9 97 1 5   102.26     LegendNANA
04:00 14.7 14.2 97   0   102.29     LegendNANA
05:00 14.1 13.6 97 35 4   102.33     LegendNANA
06:00 13.4 13.0 97 12 2   102.35     LegendNANA
07:00 15.6 15.1 97 2 1   102.38     LegendNANA
08:00 15.8 15.4 97 10 5   102.38     LegendNANA
09:00 16.1 15.6 97 19 1   102.47     LegendNANA
10:00 17.6 16.5 93 27 5   102.50     LegendNANA
11:00 20.6 17.0 80 18 5   102.49 26   LegendNANA
12:00 23.2 17.1 69 16 7   102.45 29   LegendNANA
13:00 21.7 17.2 76 15 12   102.45 27   LegendNANA
14:00 21.0 17.1 78 15 14   102.43 26   LegendNANA
15:00 23.1 17.8 72 15 15   102.41 29   LegendNANA
16:00 21.5 17.3 77 15 15   102.44 27   LegendNANA
17:00 21.3 17.5 79 16 11   102.44 27   LegendNANA
18:00 20.9 18.2 85 13 4   102.48 27   LegendNANA
19:00 19.6 17.6 88   0   102.48     LegendNANA
20:00 20.0 18.5 91   0   102.53 26   LegendNANA
21:00 20.0 18.9 94 20 2   102.52 27   LegendNANA
22:00 19.9 19.1 95 15 3   102.52     LegendNANA
23:00 19.3 18.6 96 16 4   102.51     LegendNANA

Notes on Data Quality.

Legend

  • E = Estimated
  • M = Missing
  • NA = Not Available*
  • [empty] = Indicates an unobserved value
Date modified: